Weather History for Nenana, AK

Change the Weather History Date:

Saturday, April 5, 2014

  Actual Average Record
Temperature  
Mean Temperature 34 °F -  
Max Temperature 46 °F 32 °F 62 °F (1966)
Min Temperature 21 °F 8 °F -11 °F (2009)
Degree Days  
Heating Degree Days 32    
Moisture  
Dew Point 16 °F    
Average Humidity 58    
Maximum Humidity 100    
Minimum Humidity 42    
Precipitation  
Precipitation 0.28 in - - ()
Sea Level Pressure  
Sea Level Pressure 29.48 in    
Wind  
Wind Speed 5 mph (NW)    
Max Wind Speed 14 mph    
Max Gust Speed -    
Visibility 10 miles    
Events Rain    
Averages and records for this station are not official NWS values.
T = Trace of Precipitation, MM = Missing Value Source: NWS Daily Summary

Daily Weather History Graph

Daily Weather History Graph

Search for Another Location

Airport:

Trip Planner

Search our weather history database for the weather conditions in past years. The results will help you decide how hot, cold, wet, or windy it might be!

Date:

Astronomy

Apr. 05, 2014 Rise Set
Actual Time 6:58 AM AKDT 9:01 PM AKDT
Civil Twilight 6:06 AM AKDT 9:53 PM AKDT
Nautical Twilight 4:56 AM AKDT 11:04 PM AKDT
Astronomical Twilight 3:12 AM AKDT 12:55 AM AKDT
Moon 9:49 AM AKDT (4/5) 3:43 AM AKDT (4/5)
Length of Visible Light 15h 47m
Length of Day
14h 03m
Waxing Crescent, 36% of the Moon is Illuminated
Apr 5
Waxing Crescent
Apr 7
First Quarter
Apr 14
Full
Apr 21
Last Quarter
Apr 28
New

Hourly Weather History & Observations

Time (AKDT) Temp. Windchill Dew Point Humidity Pressure Visibility Wind Dir Wind Speed Gust Speed Precip Events Conditions
12:53 AM 25.0 °F 19.3 °F 10.9 °F 55% 29.44 in 10.0 mi NW 4.6 mph - N/A   Overcast
1:53 AM 24.1 °F 17.0 °F 10.0 °F 55% 29.44 in 10.0 mi NW 5.8 mph - N/A   Overcast
2:53 AM 24.1 °F - 10.9 °F 57% 29.44 in 10.0 mi Calm Calm - N/A   Mostly Cloudy
3:53 AM 21.9 °F 17.2 °F 10.0 °F 60% 29.44 in 10.0 mi NW 3.5 mph - N/A   Clear
4:53 AM 19.9 °F - 10.0 °F 65% 29.44 in 10.0 mi Calm Calm - N/A   Clear
5:53 AM 19.0 °F 13.9 °F 9.0 °F 65% 29.44 in 10.0 mi NW 3.5 mph - N/A   Clear
6:53 AM 18.0 °F 12.7 °F 8.1 °F 65% 29.45 in 10.0 mi NW 3.5 mph - N/A   Mostly Cloudy
7:53 AM 18.0 °F 12.7 °F 7.0 °F 62% 29.45 in 10.0 mi NW 3.5 mph - N/A   Partly Cloudy
8:53 AM 19.9 °F - 8.1 °F 60% 29.45 in 10.0 mi Calm Calm - N/A   Overcast
9:53 AM 21.9 °F - 9.0 °F 58% 29.45 in 10.0 mi Calm Calm - N/A   Clear
10:53 AM 24.1 °F 16.0 °F 9.0 °F 53% 29.45 in 10.0 mi NW 6.9 mph - N/A   Clear
11:53 AM 27.0 °F 21.6 °F 10.0 °F 49% 29.45 in 10.0 mi NNW 4.6 mph - N/A   Clear
12:53 PM 30.0 °F 23.2 °F 10.9 °F 45% 29.44 in 10.0 mi NW 6.9 mph - N/A   Clear
1:53 PM 33.1 °F 26.1 °F 12.9 °F 43% 29.43 in 10.0 mi NW 8.1 mph - N/A   Clear
2:53 PM 34.0 °F 26.0 °F 14.0 °F 44% 29.42 in 10.0 mi NW 10.4 mph - N/A   Clear
3:53 PM 35.1 °F 26.9 °F 14.0 °F 42% 29.42 in 10.0 mi NW 11.5 mph - N/A   Clear
4:53 PM 36.0 °F 29.0 °F 15.1 °F 43% 29.42 in 10.0 mi NW 9.2 mph - N/A   Clear
5:53 PM 35.1 °F 26.9 °F 14.0 °F 42% 29.42 in 10.0 mi NW 11.5 mph - N/A   Scattered Clouds
6:53 PM 35.1 °F 27.9 °F 15.1 °F 44% 29.42 in 10.0 mi NNW 9.2 mph - N/A   Overcast
7:53 PM 34.0 °F 28.0 °F 14.0 °F 44% 29.43 in 10.0 mi Variable 6.9 mph - N/A   Overcast
8:53 PM 32.0 °F 27.5 °F 15.1 °F 50% 29.44 in 10.0 mi NW 4.6 mph - N/A   Overcast
9:53 PM 30.0 °F 22.4 °F 12.9 °F 49% 29.44 in 10.0 mi NW 8.1 mph - N/A   Overcast
10:53 PM 30.0 °F 24.1 °F 12.0 °F 47% 29.45 in 10.0 mi NNW 5.8 mph - N/A   Overcast
11:53 PM 28.9 °F 19.8 °F 14.0 °F 54% 29.45 in 10.0 mi NNW 10.4 mph - N/A   Overcast